Tracking 31027 objects as of 19-Jul-2025
HD Live streaming from Space Station
objects crossing your sky now

ONEWEB-0217

Track ONEWEB-0217 now!
10-day predictions
ONEWEB-0217 is classified as:


NORAD ID: 48245
Int'l Code: 2021-031AM
Perigee: 1,211.5 km
Apogee: 1,214.4 km
Inclination: 87.9 °
Period: 109.5 minutes
Semi major axis: 7583 km
RCS: Unknown
Launch date: April 25, 2021
Source: United Kingdom (UK)
Launch site: VOSTOCHNY COSMODROME (VOSTO)
Your satellite tracking list
ATLAS 5 CENTAUR DEB
Track 1 satellite(s)




NASA's NSSDC Master Catalog

Two Line Element Set (TLE):
1 48245U 21031AM  25199.43897877  .00000157  00000-0  39012-3 0  9990
2 48245  87.9050 356.0826 0001895  85.4459 274.6887 13.14503524204334
Source of the keplerian elements: AFSPC